Location: LDNL
(36.4545°S, 141.6685°E)
Time: 12:13:03
(UTC+10:00)

Explorer 7 - Pass Details

Date: 15 August 2022
Orbit: 482 x 668 km, 50.3° (Epoch: 26 September)

Event Time Altitude Azimuth Distance (km) Brightness Sun altitude
Rises 17:43:06 0° 297° (WNW) 3,009 13.2 2.3°
Reaches altitude 10° 17:45:30 10° 292° (WNW) 2,102 12.3 1.9°
Maximum altitude 17:50:17 54° 214° (SW) 815 7.9 1.0°
Drops below altitude 10° 17:55:01 10° 136° (SE) 2,076 9.2 0.1°
Sets 17:57:23 0° 131° (SE) 2,969 10.0 -0.4°
